Flag for United Kingdom Weather past 2 weeks in Bradford, England, United Kingdom

Now
36 °F

Passing clouds.


Feels Like: 25 °F
Forecast: N/A
Wind: 17 mph from Northwest

Location: Leeds And Bradford

Current Time: Feb 1, 2015 at 2:55:38 PM

Latest Report: Feb 1, 2015 at 2:20 PM


Visibility: N/A

Pressure: 29.59 "Hg

Humidity: 100%

Dew point: 36 °F

Location of BradfordLocation

Historic Weather in Bradford — Graph

°F

Bradford temperature yesterday

Maximum temperature yesterday: 37 °F (at 9:50 AM)
Minimum temperature yesterday: 32 °F (at 4:50 AM)
Average temperature yesterday: 35 °F

Past Weeks' High & Low Weather Summary

 TemperatureHumidityPressure
High46 °F (Jan 25, 7:20 PM)100% (Jan 17, 2:50 PM)30.36 "Hg (Jan 17, 2:50 PM)
Low27 °F (Jan 30, 4:20 AM)65% (Feb 1, 11:50 AM)28.74 "Hg (Jan 29, 3:20 PM)
Average35 °F92%29.72 "Hg
* Reported Jan 17 1:20 PM — Feb 1 1:50 PM, Bradford, Weather by CustomWeather, © 2014

Note: Actual official high and low records may vary slightly from our data, if they occured in-between our weather recording intervals... More about our weather records

Advertising

Bradford weather history for previous 24 hours

 ConditionsComfort  
Time TempWeatherWind HumidityBarometerVisibility
1:50 PM
Feb 1
36 °FPassing clouds.20 mph100%29.59 "HgN/A
1:20 PM36 °FScattered clouds.16 mph81%29.59 "HgN/A
12:50 PM36 °FScattered clouds.18 mph75%29.56 "HgN/A
12:20 PM36 °FScattered clouds.21 mph70%29.56 "HgN/A
11:50 AM36 °FScattered clouds.18 mph65%29.56 "HgN/A
11:20 AM34 °FScattered clouds.18 mph81%29.56 "HgN/A
10:50 AM36 °FScattered clouds.17 mph100%29.53 "HgN/A
10:20 AM36 °FScattered clouds.15 mph93%29.53 "HgN/A
9:50 AM36 °FScattered clouds.18 mph81%29.53 "HgN/A
9:20 AM34 °FPartly sunny.21 mph81%29.50 "HgN/A
8:50 AM34 °FPartly sunny.20 mph93%29.47 "HgN/A
8:20 AM34 °FPartly sunny.21 mph100%29.47 "HgN/A
7:50 AM34 °FPassing clouds.20 mph93%29.45 "HgN/A
7:20 AM34 °FPassing clouds.16 mph87%29.45 "HgN/A
6:50 AM34 °FPassing clouds.18 mph81%29.42 "HgN/A
6:20 AM34 °FPassing clouds.17 mph81%29.42 "HgN/A
5:50 AM34 °FPassing clouds.20 mph81%29.39 "HgN/A
5:20 AM34 °FPassing clouds.23 mph81%29.39 "HgN/A
4:50 AM34 °FPassing clouds.24 mph81%29.36 "HgN/A
4:20 AM34 °FPassing clouds.23 mph75%29.36 "HgN/A
3:50 AM34 °FPassing clouds.26 mph87%29.33 "HgN/A
3:20 AM34 °FPassing clouds.25 mph100%29.33 "HgN/A
2:50 AM34 °FPassing clouds.25 mph100%29.33 "HgN/A
2:20 AM34 °FPassing clouds.24 mph100%29.33 "HgN/A
1:50 AM34 °FPassing clouds.25 mph100%29.30 "HgN/A
1:20 AM34 °FPassing clouds.26 mphN/A29.30 "HgN/A
12:50 AM34 °FPassing clouds.25 mph100%29.30 "HgN/A
12:20 AM34 °FPassing clouds.26 mph100%29.30 "HgN/A
11:50 PM
Jan 31
34 °FClear.25 mph100%29.30 "Hg10 mi
11:20 PM34 °FClear.23 mph87%29.30 "Hg10 mi
10:50 PM34 °FClear.24 mph81%29.30 "Hg10 mi
10:20 PM34 °FClear.24 mph75%29.30 "Hg10 mi
9:50 PM34 °FPassing clouds.22 mph70%29.30 "HgN/A
9:20 PM34 °FPassing clouds.20 mph70%29.30 "HgN/A
8:50 PM34 °FPassing clouds.21 mph70%29.30 "HgN/A
8:20 PM34 °FPassing clouds.24 mph70%29.30 "HgN/A
7:50 PM34 °FClear.24 mph70%29.27 "Hg10 mi
7:20 PM34 °FClear.21 mph70%29.27 "Hg10 mi
6:50 PM34 °FClear.22 mph70%29.27 "Hg10 mi
6:20 PM34 °FClear.20 mph75%29.27 "Hg10 mi
5:50 PM34 °FClear.18 mph75%29.24 "Hg10 mi
5:20 PM36 °FPassing clouds.18 mph70%29.24 "HgN/A
4:50 PM36 °FPassing clouds.20 mph70%29.24 "HgN/A
4:20 PM36 °FPassing clouds.23 mph70%29.21 "HgN/A
3:20 PM37 °FPassing clouds.23 mph70%29.18 "HgN/A
2:50 PM37 °FPassing clouds.24 mph70%29.18 "HgN/A
2:20 PM37 °FScattered clouds.23 mph70%29.15 "HgN/A
Weather by CustomWeather, © 2014

See weather overviewHow to use our weather pages